Regional Weather Roundup
Issued by NWS

Home | Current Version | Previous Version | Graphics & Text | Print | Product List | Glossary On
Versions: 1 2 3 4 5 6 7 8 9 10 11 12 13 14 15 16 17 18 19 20 21 22 23 24 25 26 27 28 29 30 31 32 33 34 35 36 37 38 39 40 41 42 43 44 45 46 47 48 49 50
000
ASUS43 KFSD 221010
RWRSD

WEATHER ROUNDUP FOR SOUTH DAKOTA
NATIONAL WEATHER SERVICE SIOUX FALLS SD
500 AM CDT THU JUN 22 2017

NOTE: "FAIR" INDICATES FEW OR NO CLOUDS BELOW 12,000 FEET WITH NO
SIGNIFICANT WEATHER AND/OR OBSTRUCTIONS TO VISIBILITY.


SDZ001>005-009-010-012>017-221100-
NORTHWEST AND NORTH CENTRAL SOUTH DAKOTA

CITY           SKY/WX    TMP DP  RH WIND       PRES   REMARKS
BUFFALO          N/A     58  48  69 NE9       29.78R
FAITH            N/A     59  54  83 N12       29.78R
MOBRIDGE       CLOUDY    61  52  72 CALM      29.73R
$$

SDZ012>016-024>037-041>051-057-063-072>074-221100-
SOUTHWEST AND SOUTH CENTRAL SOUTH DAKOTA

CITY           SKY/WX    TMP DP  RH WIND       PRES   REMARKS
RAPID CTY ARPT CLOUDY    57  47  69 NW6       29.80S
PIERRE         CLOUDY    57  52  83 NE10      29.71F
CUSTER         CLOUDY    56  44  64 N9        29.90R
ELLSWORTH AFB  CLOUDY    61  51  67 N12       29.81R
PHILIP         CLOUDY    62  49  62 E18       29.71F
PINE RIDGE     CLOUDY    62  56  80 E13       29.69F
SPEARFISH      MOCLDY    59  54  82 CALM      29.83S
WINNER         FAIR      68  54  60 NE12      29.68R
$$

SDZ004>011-016>023-039-040-221100-
NORTHEAST SOUTH DAKOTA

CITY           SKY/WX    TMP DP  RH WIND       PRES   REMARKS
ABERDEEN       CLOUDY    61  57  87 SE5       29.72F
WATERTOWN      RAIN      59  56  89 VRB3      29.76R
BROOKINGS      CLOUDY    66  58  75 NE9       29.71F
SISSETON         N/A     63  56  78 CALM      29.72R
$$

SDZ017-020-022-023-036>040-048>070-221100-
SOUTHEAST SOUTH DAKOTA

CITY           SKY/WX    TMP DP  RH WIND       PRES   REMARKS
SIOUX FALLS    CLOUDY    69  63  81 N14G25    29.67R
HURON          CLOUDY    63  58  83 NE13G18   29.73  THUNDER
CHAMBERLAIN    CLOUDY    70  50  49 NE16G26   29.68F
MITCHELL       CLOUDY    71  53  52 NE20G25   29.65F
YANKTON        CLEAR     71  70  96 N8        29.61R
$$

ABBREVIATIONS USED IN REMARKS
   TC - TEMPERATURE IN CELSIUS
  WCI - WIND CHILL INDEX
   HX - HEAT INDEX
  VSB - VISIBILITY





USA.gov is the U.S. government's official web portal to all federal, state and local government web resources and services.